Weather History for KGLS - December, 2013

Change the Weather History Date:

Friday, December 13, 2013

  Actual Average Record
Temperature  
Mean Temperature 56 °F 58 °F  
Max Temperature 64 °F 64 °F 77 °F (1933)
Min Temperature 47 °F 51 °F 32 °F (1919)
Degree Days  
Heating Degree Days 9 8  
Month to date heating degree days 158 95  
Since 1 July heating degree days 336 198  
Cooling Degree Days 0 1  
Month to date cooling degree days 11 13  
Year to date cooling degree days 3322 3302  
Growing Degree Days 4 (Base 50)    
Moisture  
Dew Point 56 °F    
Average Humidity 90    
Maximum Humidity 100    
Minimum Humidity 80    
Precipitation  
Precipitation 0.03 in 0.10 in 3.86 in (1940)
Month to date precipitation 0.14 1.66  
Year to date precipitation 38.73 48.90  
Snow  
Snow 0.00 in - 0.00 in (2002)
Month to date snowfall 0.0  
Since 1 July snowfall 0.0  
Snow Depth 0.00 in    
Sea Level Pressure  
Sea Level Pressure 30.02 in    
Wind  
Wind Speed 8 mph (ENE)    
Max Wind Speed 15 mph    
Max Gust Speed 20 mph    
Visibility 6 miles    
Events Fog , Rain    
T = Trace of Precipitation, MM = Missing Value Source: NWS Daily Summary

Daily Weather History Graph

Daily Weather History Graph

Search for Another Location

Airport or City:

Trip Planner

Search our weather history database for the weather conditions in past years. The results will help you decide how hot, cold, wet, or windy it might be!

Date:

Astronomy

Dec. 13, 2013 Rise Set
Actual Time 7:04 AM CST 5:22 PM CST
Civil Twilight 6:38 AM CST 5:48 PM CST
Nautical Twilight 6:09 AM CST 6:18 PM CST
Astronomical Twilight 5:40 AM CST 6:47 PM CST
Moon 2:56 PM CST (12/13) 3:39 AM CST (12/13)
Length of Visible Light 11h 09m
Length of Day
10h 17m
Waxing Gibbous, 88% of the Moon is Illuminated
Dec 13
Waxing Gibbous
Dec 17
Full
Dec 25
Last Quarter
Jan 1
New
Jan 7
First Quarter

Hourly Weather History & Observations

Time (CST) Temp. Dew Point Humidity Pressure Visibility Wind Dir Wind Speed Gust Speed Precip Events Conditions
12:52 AM 46.9 °F 43.0 °F 86% 30.33 in 10.0 mi North 4.6 mph - N/A   Clear
1:52 AM 48.0 °F 45.0 °F 89% 30.32 in 7.0 mi North 9.2 mph - N/A   Clear
2:52 AM 46.9 °F 44.1 °F 90% 30.28 in 8.0 mi North 8.1 mph - N/A   Partly Cloudy
3:52 AM 48.0 °F 44.1 °F 86% 30.24 in 9.0 mi NE 5.8 mph - N/A   Overcast
4:52 AM 48.9 °F 46.0 °F 90% 30.22 in 6.0 mi NE 9.2 mph - N/A   Scattered Clouds
5:52 AM 50.0 °F 46.9 °F 89% 30.21 in 6.0 mi ENE 8.1 mph - N/A   Scattered Clouds
6:52 AM 48.9 °F 46.9 °F 93% 30.21 in 5.0 mi North 8.1 mph - N/A   Clear
7:52 AM 50.0 °F 48.0 °F 93% 30.19 in 5.0 mi NE 6.9 mph - N/A   Clear
8:52 AM 54.0 °F 51.1 °F 90% 30.18 in 7.0 mi ENE 12.7 mph - N/A   Scattered Clouds
9:08 AM 55.4 °F 51.8 °F 88% 30.16 in 10.0 mi ENE 12.7 mph - N/A   Mostly Cloudy
9:22 AM 55.4 °F 51.8 °F 88% 30.16 in 10.0 mi East 12.7 mph - N/A   Overcast
9:52 AM 57.9 °F 54.0 °F 87% 30.16 in 10.0 mi East 10.4 mph - N/A   Mostly Cloudy
10:13 AM 57.2 °F 53.6 °F 88% 30.13 in 10.0 mi ENE 11.5 mph - N/A   Overcast
10:52 AM 60.1 °F 55.0 °F 83% 30.12 in 10.0 mi East 12.7 mph - N/A   Overcast
11:52 AM 60.1 °F 57.0 °F 90% 30.07 in 10.0 mi East 11.5 mph - N/A   Overcast
12:16 PM 60.8 °F 57.2 °F 88% 30.05 in 10.0 mi East 11.5 mph - N/A   Overcast
12:44 PM 60.8 °F 57.2 °F 88% 30.03 in 10.0 mi East 10.4 mph - N/A   Overcast
12:52 PM 61.0 °F 59.0 °F 93% 30.03 in 10.0 mi East 11.5 mph - N/A   Overcast
1:52 PM 60.1 °F 59.0 °F 96% 29.97 in 5.0 mi East 11.5 mph - 0.00 in Rain Light Rain
2:26 PM 62.6 °F 60.8 °F 94% 29.94 in 8.0 mi East 12.7 mph - 0.00 in   Overcast
2:52 PM 63.0 °F 61.0 °F 93% 29.94 in 9.0 mi East 11.5 mph - 0.00 in   Mostly Cloudy
3:52 PM 63.0 °F 62.1 °F 97% 29.93 in 8.0 mi East 5.8 mph - N/A   Overcast
4:52 PM 62.1 °F 62.1 °F 100% 29.91 in 6.0 mi ESE 5.8 mph - 0.00 in   Mostly Cloudy
5:00 PM 62.6 °F 62.6 °F 100% 29.91 in 5.0 mi SE 5.8 mph - N/A   Mostly Cloudy
5:38 PM 57.2 °F 57.2 °F 100% 29.90 in 6.0 mi Calm Calm - N/A   Mostly Cloudy
5:52 PM 57.0 °F 57.0 °F 100% 29.90 in 6.0 mi Calm Calm - N/A   Scattered Clouds
6:04 PM 57.2 °F 57.2 °F 100% 29.90 in 6.0 mi Calm Calm - N/A   Mostly Cloudy
6:52 PM 57.0 °F 57.0 °F 100% 29.89 in 4.0 mi ESE 3.5 mph - N/A   Overcast
6:59 PM 57.2 °F 57.2 °F 100% 29.89 in 2.5 mi ESE 6.9 mph - N/A   Mostly Cloudy
7:14 PM 60.8 °F 60.8 °F 100% 29.89 in 3.0 mi SSE 3.5 mph - N/A   Scattered Clouds
7:27 PM 59.0 °F 59.0 °F 100% 29.91 in 2.5 mi Calm Calm - N/A   Partly Cloudy
7:35 PM 60.8 °F 60.8 °F 100% 29.91 in 4.0 mi Calm Calm - 0.00 in Rain Light Rain
7:52 PM 61.0 °F 61.0 °F 100% 29.92 in 6.0 mi South 4.6 mph - 0.00 in Rain Light Rain
8:46 PM 60.8 °F 60.8 °F 100% 29.94 in 1.8 mi West 3.5 mph - 0.00 in   Overcast
8:52 PM 59.0 °F 59.0 °F 100% 29.94 in 0.8 mi West 3.5 mph - 0.00 in   Overcast
9:07 PM 59.0 °F 59.0 °F 100% 29.93 in 2.0 mi Calm Calm - N/A   Overcast
9:16 PM 59.0 °F 59.0 °F 100% 29.93 in 4.0 mi West 3.5 mph - N/A   Overcast
9:23 PM 59.0 °F 59.0 °F 100% 29.93 in 1.8 mi WNW 3.5 mph - N/A   Overcast
9:33 PM 57.2 °F 57.2 °F 100% 29.93 in 0.5 mi Calm Calm - 0.00 in Fog , Rain Light Rain
9:52 PM 57.9 °F 57.9 °F 100% 29.93 in 0.8 mi Calm Calm - 0.00 in   Overcast
9:59 PM 59.0 °F 59.0 °F 100% 29.92 in 2.0 mi Calm Calm - 0.00 in Rain Light Rain
10:07 PM 60.8 °F 60.8 °F 100% 29.93 in 5.0 mi Calm Calm - 0.00 in Rain Light Rain
10:52 PM 62.1 °F 62.1 °F 100% 29.93 in 6.0 mi WSW 9.2 mph - 0.03 in Rain Light Rain
11:52 PM 59.0 °F 59.0 °F 100% 29.92 in 3.0 mi West 8.1 mph - 0.00 in   Overcast